Погода в Тобольском

Россия / Оренбургская область     51°26′37″N   61°09′26″E
темп.,
°C
ветер,
м/с
пор.,
м/с
влажн.,
%
обл.,
%
осадки,
мм/ч
давл.,
гПа
погр.,
м
16 апреля, пт
пт1623:00+10вюв22475 0.0 102210
02:00+8вюв22535 0.0 102110
05:00+7св22515 0.0 102110
08:00+9св22560 0.0 102129
11:00+14св22430 0.0 1020362
14:00+16св22355 0.0 1020775
17:00+17ссв233356 0.0 1019953
20:00+13с33515 0.0 102020
17 апреля, сб
сб1723:00+11всв44655 0.0 102035
02:00+8св47875 0.0 1021112
05:00+6св479833 0.0 1023132
08:00+7всв469452 0.0 1023204
11:00+12всв457358 0.0 1023578
14:00+16в335526 0.0 10221186
17:00+16вюв224510 0.0 10211574
20:00+13св225712 0.0 102011
18 апреля, вс
вс1823:00+11св23665 0.0 102014
02:00+9св12770 0.0 101911
05:00+8с22801 0.0 101910
08:00+10сз22720 0.0 101958
11:00+13с44660 0.0 1019632
14:00+14ссв545621 0.0 10201187
17:00+13ссв664728 0.0 10201413
20:00+8св1013625 0.0 1023570
19 апреля, пн
пн1923:00+4всв913577 0.0 1026660
02:00+2всв9145499 0.0 1027635
05:000в71161100 0.0 1030713
08:000всв81159100 0.0 1032824
11:00+2всв9104458 0.0 10321155
14:00+4всв9103422 0.0 10311385
17:00+3всв9103149 0.0 10311439
20:00+1всв81040100 0.0 10331106
20 апреля, вт
вт2023:00−1всв812495 0.0 1034809
02:00−2всв811480 0.0 1035858
05:00−3всв711450 0.0 1036785
08:00−2всв810390 0.0 1037854
11:00+1всв79310 0.0 10361135
14:00+4всв78280 0.0 10351224
17:00+5всв56280 0.0 10341205
20:00+2всв46420 0.0 103494